• In Belarus
  • List of Countries
  • For 7 days
  • Water Temperature
  • Satellite Maps
  • Weather Map
  • Weather Widgets
  • user-avatar
    Login

    Hourly Weather Yerevan

    Today, 23 May, Wednesday

    Time Temperature Precipitation Wind Pressure Humidity
    00:00 +20°C° 0.5 mm 1 mps 693 mmHg 76%
    01:00 +19°C° 0.2 mm 1 mps 693 mmHg 78%
    02:00 +19°C° 0.2 mm 1 mps 693 mmHg 79%
    03:00 +18°C° 0 mm 1 mps 692 mmHg 81%
    04:00 +19°C° 0.1 mm 1 mps 692 mmHg 79%
    05:00 +19°C° 0.1 mm 1 mps 693 mmHg 77%
    06:00 +20°C° 0.1 mm 1 mps 693 mmHg 74%
    07:00 +21°C° 0 mm 1 mps 693 mmHg 68%
    08:00 +21°C° 0 mm 2 mps 693 mmHg 62%
    09:00 +24°C° 0 mm 2 mps 693 mmHg 57%
    10:00 +25°C° 0.3 mm 2 mps 693 mmHg 53%
    11:00 +26°C° 0.3 mm 2 mps 693 mmHg 50%
    12:00 +27°C° 0.3 mm 3 mps 693 mmHg 47%
    13:00 +27°C° 0.5 mm 3 mps 693 mmHg 46%
    14:00 +28°C° 0.5 mm 3 mps 692 mmHg 45%
    15:00 +27°C° 0 mm 4 mps 692 mmHg 45%
    16:00 +26°C° 0.2 mm 4 mps 692 mmHg 47%
    17:00 +26°C° 0.2 mm 3 mps 692 mmHg 48%
    18:00 +25°C° 0.2 mm 3 mps 692 mmHg 50%
    19:00 +24°C° 0.1 mm 3 mps 692 mmHg 53%
    20:00 +21°C° 0.1 mm 3 mps 692 mmHg 56%
    21:00 +20°C° 0.1 mm 2 mps 692 mmHg 60%
    22:00 +19°C° 0 mm 2 mps 692 mmHg 60%
    23:00 +19°C° 0 mm 2 mps 692 mmHg 61%

    Tomorrow, 24 May, Thursday

    Time Temperature Precipitation Wind Pressure Humidity
    00:00 +18°C° 0 mm 2 mps 692 mmHg 61%
    01:00 +18°C° 0 mm 2 mps 691 mmHg 62%
    02:00 +17°C° 0 mm 2 mps 691 mmHg 62%
    03:00 +17°C° 0 mm 2 mps 691 mmHg 63%
    04:00 +17°C° 0.1 mm 2 mps 691 mmHg 63%
    05:00 +19°C° 0.1 mm 1 mps 691 mmHg 63%
    06:00 +19°C° 0.1 mm 1 mps 691 mmHg 62%
    07:00 +21°C° 0.1 mm 1 mps 691 mmHg 57%
    08:00 +22°C° 0.1 mm 1 mps 691 mmHg 52%
    09:00 +24°C° 0.1 mm 1 mps 691 mmHg 46%
    10:00 +25°C° 0 mm 2 mps 691 mmHg 44%
    11:00 +26°C° 0 mm 2 mps 690 mmHg 41%
    12:00 +27°C° 0 mm 2 mps 690 mmHg 38%
    13:00 +27°C° 0.3 mm 2 mps 690 mmHg 39%
    14:00 +27°C° 0.3 mm 3 mps 689 mmHg 39%
    15:00 +28°C° 0.3 mm 3 mps 689 mmHg 40%
    16:00 +27°C° 0.3 mm 3 mps 689 mmHg 43%
    17:00 +26°C° 0.3 mm 2 mps 689 mmHg 46%
    18:00 +25°C° 0.3 mm 2 mps 688 mmHg 49%
    19:00 +24°C° 0.2 mm 2 mps 688 mmHg 53%
    20:00 +21°C° 0.2 mm 2 mps 689 mmHg 57%
    21:00 +20°C° 0.2 mm 2 mps 689 mmHg 61%
    22:00 +19°C° 0 mm 2 mps 688 mmHg 62%
    23:00 +20°C° 0 mm 1 mps 688 mmHg 63%

    Day after tomorrow, 25 May, Friday

    Time Temperature Precipitation Wind Pressure Humidity
    00:00 +19°C° 0 mm 1 mps 688 mmHg 64%
    01:00 +19°C° 0 mm 1 mps 688 mmHg 64%
    02:00 +18°C° 0 mm 1 mps 687 mmHg 65%
    03:00 +18°C° 0 mm 1 mps 687 mmHg 65%
    04:00 +18°C° 0 mm 1 mps 687 mmHg 64%
    05:00 +19°C° 0 mm 1 mps 687 mmHg 62%
    06:00 +20°C° 0 mm 1 mps 687 mmHg 61%
    07:00 +21°C° 0 mm 1 mps 687 mmHg 57%
    08:00 +23°C° 0 mm 1 mps 687 mmHg 53%
    09:00 +24°C° 0 mm 1 mps 687 mmHg 49%
    10:00 +25°C° 0.1 mm 2 mps 687 mmHg 47%
    11:00 +26°C° 0.1 mm 2 mps 687 mmHg 46%
    12:00 +27°C° 0.1 mm 2 mps 687 mmHg 44%
    13:00 +27°C° 0.4 mm 2 mps 687 mmHg 43%
    14:00 +27°C° 0.4 mm 2 mps 686 mmHg 42%
    15:00 +28°C° 0.4 mm 2 mps 686 mmHg 42%
    16:00 +27°C° 0.5 mm 2 mps 686 mmHg 44%
    17:00 +26°C° 0.5 mm 2 mps 686 mmHg 47%
    18:00 +26°C° 0.5 mm 2 mps 686 mmHg 50%
    19:00 +24°C° 0.4 mm 1 mps 687 mmHg 53%
    20:00 +23°C° 0.4 mm 1 mps 687 mmHg 56%
    21:00 +22°C° 0.4 mm 1 mps 687 mmHg 59%
    22:00 +21°C° 0.1 mm 1 mps 687 mmHg 60%
    23:00 +21°C° 0.1 mm 1 mps 687 mmHg 61%

    26 May, Saturday

    Time Temperature Precipitation Wind Pressure Humidity
    00:00 +20°C° 0.1 mm 1 mps 687 mmHg 62%
    01:00 +20°C° 0.2 mm 1 mps 687 mmHg 63%
    02:00 +19°C° 0.2 mm 1 mps 687 mmHg 64%
    03:00 +19°C° 0.2 mm 1 mps 687 mmHg 65%
    04:00 +20°C° 0.1 mm 1 mps 687 mmHg 65%
    05:00 +20°C° 0.1 mm 1 mps 687 mmHg 65%
    06:00 +21°C° 0.1 mm 1 mps 688 mmHg 64%
    07:00 +23°C° 0.1 mm 1 mps 688 mmHg 59%
    08:00 +24°C° 0.1 mm 1 mps 688 mmHg 54%
    09:00 +26°C° 0.1 mm 1 mps 688 mmHg 48%
    10:00 +27°C° 0.2 mm 2 mps 688 mmHg 45%
    11:00 +28°C° 0.2 mm 2 mps 688 mmHg 42%
    12:00 +29°C° 0.2 mm 2 mps 688 mmHg 39%
    13:00 +29°C° 0.3 mm 2 mps 688 mmHg 38%
    14:00 +30°C° 0.3 mm 2 mps 688 mmHg 37%
    15:00 +30°C° 0.3 mm 2 mps 687 mmHg 36%
    16:00 +29°C° 0.4 mm 2 mps 687 mmHg 39%
    17:00 +28°C° 0.4 mm 2 mps 687 mmHg 42%
    18:00 +28°C° 0.4 mm 2 mps 687 mmHg 46%
    19:00 +26°C° 0.5 mm 2 mps 688 mmHg 50%
    20:00 +24°C° 0.5 mm 2 mps 688 mmHg 54%
    21:00 +23°C° 0.5 mm 2 mps 689 mmHg 58%
    22:00 +22°C° 0.4 mm 1 mps 689 mmHg 60%
    23:00 +22°C° 0.4 mm 1 mps 689 mmHg 63%

    27 May, Sunday

    Time Temperature Precipitation Wind Pressure Humidity
    00:00 +21°C° 0.4 mm 1 mps 689 mmHg 65%
    01:00 +21°C° 0.3 mm 1 mps 689 mmHg 66%
    02:00 +20°C° 0.3 mm 1 mps 689 mmHg 67%
    03:00 +20°C° 0.3 mm 1 mps 689 mmHg 68%
    04:00 +20°C° 0.2 mm 1 mps 690 mmHg 66%
    05:00 +21°C° 0.2 mm 1 mps 690 mmHg 65%
    06:00 +21°C° 0.2 mm 1 mps 691 mmHg 64%
    07:00 +23°C° 0.1 mm 1 mps 691 mmHg 58%
    08:00 +24°C° 0.1 mm 1 mps 691 mmHg 52%
    09:00 +26°C° 0.1 mm 1 mps 692 mmHg 47%
    10:00 +27°C° 0.1 mm 1 mps 692 mmHg 43%
    11:00 +28°C° 0.1 mm 1 mps 692 mmHg 39%
    12:00 +29°C° 0.1 mm 1 mps 692 mmHg 36%
    13:00 +29°C° 0.1 mm 2 mps 692 mmHg 35%
    14:00 +30°C° 0.1 mm 2 mps 693 mmHg 34%
    15:00 +30°C° 0.1 mm 2 mps 693 mmHg 33%
    16:00 +29°C° 0.3 mm 2 mps 693 mmHg 38%
    17:00 +28°C° 0.3 mm 3 mps 693 mmHg 42%
    18:00 +27°C° 0.3 mm 4 mps 693 mmHg 46%
    19:00 +26°C° 0.2 mm 3 mps 693 mmHg 52%
    20:00 +24°C° 0.2 mm 3 mps 694 mmHg 58%
    21:00 +21°C° 0.2 mm 3 mps 694 mmHg 64%
    22:00 +20°C° 0 mm 3 mps 694 mmHg 66%
    23:00 +20°C° 0 mm 2 mps 694 mmHg 68%

    28 May, Monday

    Time Temperature Precipitation Wind Pressure Humidity
    00:00 +19°C° 0 mm 2 mps 694 mmHg 70%
    01:00 +18°C° 0 mm 2 mps 694 mmHg 71%
    02:00 +18°C° 0 mm 2 mps 694 mmHg 71%
    03:00 +18°C° 0 mm 2 mps 694 mmHg 72%
    04:00 +18°C° 0 mm 2 mps 694 mmHg 70%
    05:00 +20°C° 0 mm 1 mps 694 mmHg 68%
    06:00 +21°C° 0 mm 1 mps 694 mmHg 66%
    07:00 +22°C° 0 mm 1 mps 694 mmHg 60%
    08:00 +24°C° 0 mm 2 mps 694 mmHg 53%
    09:00 +26°C° 0 mm 2 mps 694 mmHg 47%
    10:00 +27°C° 0 mm 2 mps 694 mmHg 43%
    11:00 +29°C° 0 mm 2 mps 693 mmHg 40%
    12:00 +30°C° 0 mm 2 mps 693 mmHg 37%
    13:00 +30°C° 0 mm 2 mps 692 mmHg 35%
    14:00 +31°C° 0 mm 2 mps 692 mmHg 34%
    15:00 +31°C° 0 mm 2 mps 691 mmHg 32%
    16:00 +31°C° 0.1 mm 2 mps 691 mmHg 35%
    17:00 +30°C° 0.1 mm 2 mps 691 mmHg 38%
    18:00 +29°C° 0.1 mm 2 mps 691 mmHg 41%
    19:00 +28°C° 0.3 mm 1 mps 691 mmHg 45%
    20:00 +26°C° 0.3 mm 1 mps 691 mmHg 49%
    21:00 +24°C° 0.3 mm 1 mps 691 mmHg 53%
    22:00 +23°C° 0.3 mm 1 mps 691 mmHg 56%
    23:00 +23°C° 0.3 mm 2 mps 691 mmHg 58%
    Show more